COSMOS 1275 DEB, 12675

Orbit data source: Space-Track

COSMOS 1275 DEB, 12675 is space debris in LEO originally from a launch on Thu, 04 Jun 1981 UTC launched from the Plesetsk Missile And Space Complex (PKMTR). Debris objects in space refer to the collection of defunct objects orbiting the Earth. Examples of debris include non-operational satellites, rocket bodies, and fragments generated from explosions, collisions, or faulty payload assembly.

Loading next visibility...
Identifier
12675, 1981-053AF
Orbit
LEO
Last TLE update
12 hours ago
Origin
Manufacturer
Unknown
Mission
Spacecraft
Bus & Motor
Unknown
Mass
Unknown
Launch date (UTC)
1981-06-04 (44 years ago)
Launch vehicle
Unknown
Launch site
Plesetsk Missile And Space Complex (PKMTR)
Object type
Payload
Rocket body
Debris
Shape & HBR
Unknown
Radar Cross Section
Medium (>0.1 m² and <1 m²)

Expand to show TLE details & history

TLE from 12 hours ago
0 COSMOS 1275 DEB
1 12675U 81053AF  25128.72632903  .00000678  00000-0  62543-3 0  9992
2 12675  82.9381 205.0776 0062521 345.4025 138.6426 13.80406521192732
Epoch: 2025-05-08T17:25Z
Definitive object data (Epoch: 2025-05-08T17:25:54.828Z)
Latitude
54.95402°
Longitude
-113.31324°
Altitude
1,006.117 km
Speed
7.336 km/s
True Right ascension
00h 59m 49s
True Declination
54° 47' 51"
Sunlit
Object was in daylight at TLE epoch
Visualization TLE readout
Latitude
40.87288°
Longitude
-109.69761°
Altitude
1,009.819 km
Speed
7.33 km/s
Apparent Right ascension
01h 30m 42s
Apparent Declination
4° 03' 20"
Sunlit
Object is in daylight
Visualization observer readout
Local Sidereal Time
13:49:27
Azimuth
6.716° NNE
Elevation
-45.818°
Doppler factor
1
Orbital elements
Apogee altitude
1,005.463 km
Perigee altitude
913.71 km
Semi-major axis
7,337.724 km
Eccentricity
0.0062521
Inclination
82.9381°
RAAN
205.0776°
Arg. of periapsis
345.4025°
True anomaly
139.11322°
Mean anomaly
138.6426°
Eccentric anomaly
138.87819°
Mean motion
3.45304 °/min
BSTAR
0.00062543
Orbital period
104.26 mins
Loading maneuver chart data...
Loading SW <> Apogee altitude chart data...
Loading historical data...
Loading historical data...
Loading historical data...
Loading historical data...
Loading historical data...
Loading historical data...
Loading historical data...

COSMOS 1275 DEB Visibility forecast

Observer location: undefined°, undefined°

Span
Click to sort rows by Start time (UTC) header in descending order
Start Az.
Max El. time (UTC)
Max El. Az.
Max El.
End time (UTC)
End Az.
9 mins2025-05-09 06:52:44.745Z233.202° WSW2025-05-09 06:56:44.745Z279.671° WNW24.654°2025-05-09 07:01:44.745Z341.216° N
9 mins2025-05-09 16:02:44.745Z21.945° NNE2025-05-09 16:06:44.745Z75.995° E28.606°2025-05-09 16:11:44.745Z134.512° SE
9 mins2025-05-09 17:47:44.745Z327.359° NNW2025-05-09 17:51:44.745Z271.786° WNW31.101°2025-05-09 17:56:44.745Z210.486° SW
10 mins2025-05-10 05:28:44.745Z174.082° S2025-05-10 05:33:44.745Z62.355° ENE42.701°2025-05-10 05:38:44.745Z12.405° NNE
|